Location: Auckland
(36.8670°S, 174.7670°E)
Time: 12:47:02
(UTC+12:00)

Tiros 1 despin weight - Pass Details

Date: 27 July 2019
Orbit: 594 x 642 km, 48.2° (Epoch: 20 August)

Event Time Altitude Azimuth Distance (km) Brightness Sun altitude
Rises 05:20:50 0° 245° (WSW) 2,871 - -24.6°
Reaches altitude 10° 05:23:23 10° 257° (WSW) 1,968 - -24.0°
Maximum altitude 05:27:12 27° 314° (NW) 1,184 - -23.3°
Exits shadow 05:28:32 23° 343° (NNW) 1,306 ? -23.0°
Drops below altitude 10° 05:31:02 10° 12° (NNE) 1,975 ? -22.5°
Sets 05:33:36 0° 24° (NNE) 2,882 ? -22.0°
